Windom, MN

1:47 PM CDT on August 18, 2017 (GMT -0500)
Windom Municipal

Weather History for KMWM - September, 2012

Change the Weather History Date:

Sunday, September 2, 2012

  Actual Average Record
Temperature  
Mean Temperature 74 °F -  
Max Temperature 89 °F 78 °F 129 °F (1997)
Min Temperature 60 °F 55 °F 38 °F (1974)
Cooling Degree Days 10    
Growing Degree Days 24 (Base 50)    
Moisture  
Dew Point 58 °F    
Average Humidity 56    
Maximum Humidity 77    
Minimum Humidity 33    
Precipitation  
Precipitation 0.00 in - - ()
Sea Level Pressure  
Sea Level Pressure 29.92 in    
Wind  
Wind Speed 9 mph (SSE)    
Max Wind Speed 16 mph    
Max Gust Speed 22 mph    
Visibility 10 miles    
Events      
Averages and records for this station are not official NWS values.
T = Trace of Precipitation, MM = Missing Value Source: NWS Daily Summary

Daily Weather History Graph

Daily Weather History Graph

Search for Another Location

Airport or City:

Trip Planner

Search our weather history database for the weather conditions in past years. The results will help you decide how hot, cold, wet, or windy it might be!

Date:

Astronomy

Sep. 02, 2012 Rise Set
Actual Time 6:45 AM CDT 7:53 PM CDT
Civil Twilight 6:15 AM CDT 8:23 PM CDT
Nautical Twilight 5:40 AM CDT 8:58 PM CDT
Astronomical Twilight 5:03 AM CDT 9:35 PM CDT
Moon 8:33 PM CDT (9/2) 9:01 AM CDT (9/2)
Length of Visible Light 14h 07m
Length of Day
13h 08m
Waning Gibbous, 95% of the Moon is Illuminated
Sep 2
Waning Gibbous
Sep 8
Last Quarter
Sep 15
New
Sep 22
First Quarter
Sep 29
Full

Hourly Weather History & Observations

Time (CDT) Temp. Heat Index Dew Point Humidity Pressure Visibility Wind Dir Wind Speed Gust Speed Precip Events Conditions
12:13 AM 64.4 °F - 53.6 °F 68% 30.01 in 10.0 mi ESE 6.9 mph - N/A   Clear
12:32 AM 64.4 °F - 53.6 °F 68% 30.01 in 10.0 mi ESE 8.1 mph - N/A   Clear
12:52 AM 64.4 °F - 55.4 °F 73% 30.01 in 10.0 mi SSE 5.8 mph - N/A   Clear
1:12 AM 66.2 °F - 53.6 °F 64% 30.01 in 10.0 mi SE 5.8 mph - N/A   Clear
1:33 AM 64.4 °F - 55.4 °F 73% 30.00 in 10.0 mi SE 6.9 mph - N/A   Clear
1:52 AM 64.4 °F - 55.4 °F 73% 30.00 in 10.0 mi SSE 9.2 mph - N/A   Clear
2:12 AM 64.4 °F - 53.6 °F 68% 30.00 in 10.0 mi SSE 8.1 mph - N/A   Clear
2:32 AM 64.4 °F - 55.4 °F 73% 30.00 in 10.0 mi SSE 10.4 mph - N/A   Clear
2:52 AM 64.4 °F - 55.4 °F 73% 29.99 in 10.0 mi SSE 9.2 mph - N/A   Clear
3:12 AM 64.4 °F - 53.6 °F 68% 29.98 in 10.0 mi SE 8.1 mph - N/A   Clear
3:32 AM 64.4 °F - 53.6 °F 68% 29.98 in 10.0 mi SSE 8.1 mph - N/A   Clear
3:52 AM 64.4 °F - 53.6 °F 68% 29.98 in 10.0 mi SSE 6.9 mph - N/A   Clear
4:12 AM 62.6 °F - 53.6 °F 72% 29.98 in 10.0 mi SSE 8.1 mph - N/A   Clear
4:32 AM 62.6 °F - 53.6 °F 72% 29.98 in 10.0 mi SSE 6.9 mph - N/A   Clear
4:53 AM 62.6 °F - 53.6 °F 72% 29.98 in 10.0 mi SE 6.9 mph - N/A   Clear
5:12 AM 62.6 °F - 53.6 °F 72% 29.98 in 10.0 mi SSE 8.1 mph - N/A   Clear
5:32 AM 62.6 °F - 55.4 °F 77% 29.97 in 10.0 mi SSE 6.9 mph - N/A   Clear
6:12 AM 62.6 °F - 55.4 °F 77% 29.97 in 10.0 mi South 4.6 mph - N/A   Clear
6:32 AM 60.8 °F - 53.6 °F 77% 29.98 in 10.0 mi SW 4.6 mph - N/A   Clear
6:53 AM 60.8 °F - 53.6 °F 77% 29.98 in 10.0 mi SSE 5.8 mph - N/A   Clear
7:12 AM 60.8 °F - 53.6 °F 77% 29.98 in 10.0 mi SSE 5.8 mph - N/A   Clear
7:32 AM 62.6 °F - 55.4 °F 77% 29.98 in 10.0 mi SSE 5.8 mph - N/A   Clear
8:12 AM 66.2 °F - 55.4 °F 68% 29.97 in 10.0 mi South 5.8 mph - N/A   Clear
8:32 AM 66.2 °F - 55.4 °F 68% 29.97 in 10.0 mi South 9.2 mph - N/A   Clear
8:53 AM 69.8 °F - 55.4 °F 60% 29.97 in 10.0 mi South 10.4 mph - N/A   Clear
9:12 AM 69.8 °F - 57.2 °F 64% 29.97 in 10.0 mi SSW 9.2 mph - N/A   Clear
9:32 AM 71.6 °F - 57.2 °F 60% 29.96 in 10.0 mi South 8.1 mph - N/A   Clear
9:53 AM 73.4 °F - 59.0 °F 61% 29.96 in 10.0 mi South 11.5 mph - N/A   Clear
10:12 AM 75.2 °F - 60.8 °F 61% 29.95 in 10.0 mi SSE 10.4 mph - N/A   Clear
10:32 AM 78.8 °F - 60.8 °F 54% 29.95 in 10.0 mi SSE 9.2 mph - N/A   Clear
10:53 AM 80.6 °F 81.8 °F 62.6 °F 54% 29.95 in 10.0 mi South 10.4 mph 16.1 mph N/A   Clear
11:12 AM 80.6 °F 81.8 °F 62.6 °F 54% 29.93 in 10.0 mi SSE 11.5 mph 20.7 mph N/A   Clear
11:32 AM 82.4 °F 83.4 °F 62.6 °F 51% 29.95 in 10.0 mi South 12.7 mph - N/A   Unknown
11:53 AM 82.4 °F 83.4 °F 62.6 °F 51% 29.95 in 10.0 mi SSW 13.8 mph 17.3 mph N/A   Clear
12:12 PM 84.2 °F 85.0 °F 62.6 °F 48% 29.94 in 10.0 mi South 12.7 mph 18.4 mph N/A   Clear
12:32 PM 84.2 °F 85.0 °F 62.6 °F 48% 29.92 in 10.0 mi South 12.7 mph 17.3 mph N/A   Clear
12:53 PM 86.0 °F 86.6 °F 62.6 °F 45% 29.92 in 10.0 mi SSE 13.8 mph 17.3 mph N/A   Clear
1:12 PM 86.0 °F 86.6 °F 62.6 °F 45% 29.91 in 10.0 mi South 11.5 mph 17.3 mph N/A   Clear
1:33 PM 87.8 °F 87.6 °F 60.8 °F 40% 29.91 in 10.0 mi South 12.7 mph - N/A   Clear
1:52 PM 87.8 °F 87.6 °F 60.8 °F 40% 29.90 in 10.0 mi SSE 15.0 mph 19.6 mph N/A   Clear
2:12 PM 87.8 °F 87.6 °F 60.8 °F 40% 29.89 in 10.0 mi South 15.0 mph 21.9 mph N/A   Clear
2:33 PM 87.8 °F 87.6 °F 60.8 °F 40% 29.88 in 10.0 mi SSE 12.7 mph 19.6 mph N/A   Clear
2:52 PM 87.8 °F 87.6 °F 60.8 °F 40% 29.88 in 10.0 mi SSE 16.1 mph 19.6 mph N/A   Clear
3:12 PM 89.6 °F 88.9 °F 59.0 °F 36% 29.87 in 10.0 mi South 13.8 mph 19.6 mph N/A   Clear
3:33 PM 89.6 °F 88.1 °F 57.2 °F 33% 29.87 in 10.0 mi SSE 13.8 mph - N/A   Clear
3:52 PM 89.6 °F 88.1 °F 57.2 °F 33% 29.86 in 10.0 mi South 16.1 mph - N/A   Clear
4:12 PM 89.6 °F 88.9 °F 59.0 °F 36% 29.86 in 10.0 mi South 11.5 mph 21.9 mph N/A   Clear
4:33 PM 89.6 °F 88.9 °F 59.0 °F 36% 29.86 in 10.0 mi South 12.7 mph - N/A   Clear
4:52 PM 87.8 °F 87.1 °F 59.0 °F 38% 29.85 in 10.0 mi South 8.1 mph 17.3 mph N/A   Clear
5:12 PM 87.8 °F 87.1 °F 59.0 °F 38% 29.85 in 10.0 mi SSE 12.7 mph 17.3 mph N/A   Clear
5:33 PM 89.6 °F 88.9 °F 59.0 °F 36% 29.87 in 10.0 mi South 10.4 mph - N/A   Clear
5:52 PM 89.6 °F 88.1 °F 57.2 °F 33% 29.87 in 10.0 mi South 11.5 mph - N/A   Clear
6:12 PM 89.6 °F 88.9 °F 59.0 °F 36% 29.86 in 10.0 mi South 12.7 mph - N/A   Clear
6:33 PM 89.6 °F 88.1 °F 57.2 °F 33% 29.86 in 10.0 mi South 11.5 mph - N/A   Clear
6:52 PM 87.8 °F 86.5 °F 57.2 °F 35% 29.86 in 10.0 mi South 8.1 mph - N/A   Clear
7:12 PM 84.2 °F 84.4 °F 60.8 °F 45% 29.85 in 10.0 mi South 4.6 mph - N/A   Clear
7:33 PM 82.4 °F 82.9 °F 60.8 °F 48% 29.85 in 10.0 mi SSE 6.9 mph - N/A   Clear
7:52 PM 82.4 °F 82.9 °F 60.8 °F 48% 29.84 in 10.0 mi SSE 8.1 mph - N/A   Clear
8:12 PM 82.4 °F 82.9 °F 60.8 °F 48% 29.84 in 10.0 mi SSE 6.9 mph - N/A   Clear
8:33 PM 82.4 °F 83.4 °F 62.6 °F 51% 29.83 in 10.0 mi SSE 10.4 mph - N/A   Clear
8:52 PM 82.4 °F 83.4 °F 62.6 °F 51% 29.84 in 10.0 mi SSE 9.2 mph - N/A   Clear
9:12 PM 80.6 °F 81.8 °F 62.6 °F 54% 29.85 in 10.0 mi South 6.9 mph - N/A   Clear
9:33 PM 78.8 °F - 62.6 °F 57% 29.86 in 10.0 mi South 6.9 mph - N/A   Clear
9:52 PM 78.8 °F - 62.6 °F 57% 29.87 in 10.0 mi South 5.8 mph - N/A   Clear
10:12 PM 78.8 °F - 62.6 °F 57% 29.87 in 10.0 mi South 4.6 mph - N/A   Clear
10:33 PM 77.0 °F - 62.6 °F 61% 29.87 in 10.0 mi South 5.8 mph - N/A   Clear
10:52 PM 77.0 °F - 62.6 °F 61% 29.87 in 10.0 mi South 6.9 mph - N/A   Clear
11:52 PM 77.0 °F - 62.6 °F 61% 29.87 in 10.0 mi South 8.1 mph - N/A   Clear